CW9203 Weather Reports


Display with metric or nautical units.
time (UTC)temp
F
wind
direction
speed
MPH
gust
MPH
rain 1hr
in
rain 24hr
in
rain mn
in
humidity
%
barometer
mb
20260903044305 59 248 10.0 15.0 0.00 0.02 0.02 45 1019.5
20260903042306 60 270 5.0 12.0 0.00 0.02 0.02 57 1019.6
20260903041806 60 255 5.0 12.0 0.00 0.02 0.02 60 1019.6
20260903041304 61 263 6.0 14.0 0.00 0.02 0.02 62 1019.6
20260903035806 61 261 7.0 16.0 0.00 0.02 0.02 64 1019.6
20260903033805 62 268 9.0 16.0 0.00 0.02 0.02 64 1019.8
20260903033305 62 263 8.0 18.0 0.00 0.02 0.02 64 1019.8
20260903031804 63 258 6.0 12.0 0.00 0.02 0.02 64 1019.9
20260903031305 63 259 8.0 13.0 0.00 0.02 0.02 63 1019.9
20260903030804 63 244 8.0 17.0 0.00 0.02 0.02 63 1020.0
20260903025804 63 271 7.0 16.0 0.00 0.02 0.02 63 1019.9
20260903024805 63 255 7.0 17.0 0.00 0.02 0.02 64 1020.0
20260903024305 63 274 8.0 17.0 0.00 0.02 0.02 64 1020.0
20260903023307 63 257 8.0 15.0 0.00 0.02 0.02 64 1020.0
20260903022804 63 240 6.0 12.0 0.00 0.02 0.02 64 1020.0
20260903021805 63 246 5.0 10.0 0.00 0.02 0.02 64 1020.1
20260903020805 63 256 7.0 15.0 0.00 0.02 0.02 64 1020.3
20260903020306 63 239 9.0 15.0 0.00 0.02 0.02 64 1020.3
20260903015306 64 250 9.0 15.0 0.00 0.02 0.02 63 1020.4
20260903014804 64 247 8.0 15.0 0.00 0.02 0.02 64 1020.5
20260903013805 64 247 7.0 16.0 0.00 0.02 0.02 63 1020.6
20260903012805 64 243 6.0 13.0 0.00 0.02 0.02 62 1020.5
20260903011805 64 248 7.0 13.0 0.00 0.02 0.02 62 1020.7
20260903011307 64 253 7.0 13.0 0.00 0.02 0.02 62 1020.8
20260903010804 63 246 5.0 12.0 0.00 0.02 0.02 64 1020.8
20260903010305 64 232 8.0 14.0 0.00 0.02 0.02 61 1020.8
20260903005805 64 250 7.0 16.0 0.00 0.02 0.02 63 1020.9
20260903005306 63 254 6.0 12.0 0.00 0.02 0.02 63 1021.0
20260903004305 63 240 7.0 14.0 0.00 0.02 0.02 63 1021.1
20260903003304 63 235 6.0 12.0 0.00 0.02 0.02 64 1021.3
20260903002805 63 230 7.0 15.0 0.00 0.02 0.02 64 1021.4
20260903002306 64 240 9.0 16.0 0.00 0.02 0.02 63 1021.4
20260903001805 64 245 9.0 15.0 0.00 0.02 0.02 63 1021.5
20260903001305 65 248 8.0 14.0 0.00 0.02 0.02 63 1021.5
20260903000305 63 263 7.0 14.0 0.00 0.02 0.02 63 1021.5
20260902234804 63 234 6.0 16.0 0.00 0.02 0.02 64 1021.7
20260902234306 63 251 7.0 18.0 0.00 0.02 0.02 63 1021.7
20260902232306 62 241 7.0 18.0 0.00 0.02 0.02 63 1021.8
20260902231805 62 240 6.0 12.0 0.00 0.02 0.02 62 1021.8
20260902230305 60 252 8.0 16.0 0.00 0.02 0.02 47 1021.8
20260902225805 59 278 5.0 13.0 0.00 0.02 0.02 43 1021.9
20260902225306 59 250 7.0 12.0 0.00 0.02 0.02 48 1021.9
20260902224804 59 267 7.0 12.0 0.00 0.02 0.02 48 1021.9
20260902223305 59 234 7.0 13.0 0.00 0.02 0.02 33 1021.9
20260902222805 60 239 5.0 12.0 0.00 0.02 0.02 23 1021.9
20260902221804 60 259 5.0 12.0 0.00 0.02 0.02 4 1022.1
20260902220805 61 233 4.0 10.0 0.00 0.02 0.02 4 1022.1
20260902215805 60 240 5.0 15.0 0.00 0.02 0.02 4 1022.1
20260902215306 60 237 3.0 12.0 0.00 0.02 0.02 4 1022.1
20260902214305 59 282 3.0 7.0 0.00 0.02 0.02 4 1022.2
20260902213305 58 256 2.0 7.0 0.00 0.02 0.02 4 1022.3
20260902211305 56 248 4.0 7.0 0.00 0.02 0.02 4 1022.3
20260902210305 56 299 1.0 5.0 0.00 0.02 0.02 4 1022.3
20260902205805 56 287 1.0 3.0 0.00 0.02 0.02 4 1022.3
20260902204805 55 284 3.0 5.0 0.00 0.02 0.02 4 1022.4
20260902203805 55 300 1.0 2.0 0.00 0.02 0.02 4 1022.4
20260902203307 54 300 1.0 3.0 0.00 0.02 0.02 4 1022.5
20260902202804 54 305 1.0 3.0 0.00 0.02 0.02 4 1022.6
20260902200804 53 272 1.0 3.0 0.00 0.02 0.02 4 1022.7
20260902200305 53 276 2.0 3.0 0.00 0.02 0.02 4 1022.6
20260902195805 53 267 2.0 3.0 0.00 0.02 0.02 4 1022.4
20260902195306 52 270 0.0 0.0 0.00 0.02 0.02 4 1022.3
20260902194807 52 270 0.0 0.0 0.00 0.02 0.02 4 1022.2
20260902194306 52 271 0.0 0.0 0.00 0.02 0.02 4 1022.2
20260902192804 52 268 0.0 0.0 0.00 0.02 0.02 4 1022.1
20260902192307 52 268 0.0 0.0 0.00 0.02 0.02 4 1022.1
20260902191804 52 268 0.0 1.0 0.00 0.02 0.02 4 1022.1
20260902191305 51 266 0.0 1.0 0.00 0.02 0.02 4 1022.2
20260902190805 52 266 0.0 0.0 0.00 0.02 0.02 4 1022.2
20260902185307 52 264 1.0 2.0 0.00 0.02 0.02 4 1022.2
20260902184808 52 270 1.0 3.0 0.00 0.02 0.02 4 1022.1
20260902183304 52 274 2.0 3.0 0.00 0.02 0.02 4 1021.9
20260902182306 52 267 2.0 3.0 0.00 0.02 0.02 4 1021.9
20260902171304 54 223 2.0 6.0 0.01 0.02 0.02 4 1021.7
20260902164805 53 289 0.0 1.0 0.01 0.02 0.01 4 1021.4
20260902164307 53 289 0.0 1.0 0.01 0.02 0.01 4 1021.4
20260902160806 53 278 0.0 1.0 0.01 0.02 0.01 4 1021.6
20260902160304 53 277 0.0 0.0 0.01 0.02 0.01 4 1021.6
20260902154305 54 277 0.0 1.0 0.00 0.01 0.00 4 1021.7
20260902153805 54 277 1.0 3.0 0.00 0.01 0.00 4 1021.8
20260902153304 54 254 2.0 3.0 0.00 0.01 0.00 4 1021.9
20260902152308 54 250 3.0 5.0 0.00 0.01 0.00 4 1022.0
20260902151805 54 251 2.0 3.0 0.00 0.01 0.00 4 1022.0
20260902150804 54 253 1.0 3.0 0.00 0.01 0.00 4 1022.0
20260902150305 54 251 1.0 2.0 0.00 0.01 0.00 4 1022.0
20260902145306 54 269 1.0 1.0 0.00 0.01 0.00 4 1022.0
20260902141306 54 274 1.0 3.0 0.00 0.01 0.00 4 1022.3
20260902140805 54 279 1.0 1.0 0.00 0.01 0.00 4 1022.2
20260902133805 54 265 0.0 1.0 0.00 0.01 0.00 4 1022.2
20260902133306 55 266 0.0 1.0 0.00 0.01 0.00 4 1022.2
20260902130804 55 268 1.0 3.0 0.00 0.01 0.00 4 1021.9
20260902125306 55 255 1.0 2.0 0.00 0.01 0.00 4 1021.8
20260902124305 55 255 1.0 2.0 0.00 0.01 0.00 4 1021.8
20260902122804 55 245 2.0 5.0 0.00 0.01 0.00 4 1021.7
20260902121805 55 266 2.0 5.0 0.00 0.01 0.00 4 1021.8
20260902121304 55 256 3.0 5.0 0.00 0.01 0.00 4 1021.7
20260902120305 55 251 2.0 5.0 0.00 0.01 0.00 4 1021.6
20260902114305 55 254 2.0 3.0 0.00 0.01 0.01 4 1021.7
20260902113806 55 264 2.0 5.0 0.00 0.01 0.01 4 1021.6
20260902112306 55 263 2.0 5.0 0.00 0.01 0.01 4 1021.7
20260902111306 55 257 1.0 3.0 0.00 0.01 0.01 4 1021.7
20260902110306 54 261 1.0 2.0 0.00 0.01 0.01 4 1021.8
20260902105805 55 266 0.0 1.0 0.00 0.01 0.01 4 1021.8
20260902104805 55 273 0.0 2.0 0.00 0.01 0.01 4 1021.7
20260902104305 55 273 1.0 2.0 0.00 0.01 0.01 4 1021.8
20260902102805 55 277 0.0 0.0 0.00 0.01 0.01 4 1021.8
20260902101304 55 277 0.0 0.0 0.01 0.01 0.01 4 1021.9
20260902093807 56 287 1.0 3.0 0.01 0.01 0.01 4 1021.9
20260902093305 56 260 1.0 2.0 0.01 0.01 0.01 4 1021.8
20260902092305 56 241 3.0 6.0 0.01 0.01 0.01 4 1021.7
20260902090806 56 288 2.0 3.0 0.00 0.00 0.00 4 1021.6
20260902090305 56 256 3.0 6.0 0.00 0.00 0.00 4 1021.5
20260902084806 56 252 1.0 3.0 0.00 0.00 0.00 4 1021.4
20260902083805 56 277 0.0 1.0 0.00 0.00 0.00 4 1021.4
20260902080307 57 243 1.0 3.0 0.00 0.00 0.00 4 1021.6
20260902074805 57 250 2.0 8.0 0.00 0.00 0.00 4 1021.5
20260902073805 57 249 1.0 6.0 0.00 0.00 0.00 4 1021.5
20260902071805 56 264 3.0 5.0 0.00 0.00 0.00 4 1021.4
20260902070805 57 227 3.0 9.0 0.00 0.00 0.00 4 1021.4
20260902070304 57 257 2.0 5.0 0.00 0.00 0.00 4 1021.4
20260902065306 56 264 2.0 5.0 0.00 0.00 0.00 4 1021.4
20260902064804 56 213 2.0 6.0 0.00 0.00 0.00 4 1021.4
20260902063804 56 243 4.0 8.0 0.00 0.00 0.00 4 1021.3
20260902063304 56 231 4.0 9.0 0.00 0.00 0.00 4 1021.2
20260902062805 56 251 3.0 6.0 0.00 0.00 0.00 4 1021.1
20260902061804 56 247 2.0 5.0 0.00 0.00 0.00 4 1021.0
20260902060804 56 255 3.0 6.0 0.00 0.00 0.00 4 1020.9
20260902054805 55 234 6.0 14.0 0.00 0.00 0.00 4 1021.0
20260902054305 55 242 6.0 14.0 0.00 0.00 0.00 4 1021.0
20260902053804 56 239 9.0 17.0 0.00 0.00 0.00 4 1021.0
20260902052804 57 244 9.0 16.0 0.00 0.00 0.00 22 1020.9
20260902051806 58 245 7.0 16.0 0.00 0.00 0.00 34 1020.7
20260902051304 58 238 5.0 13.0 0.00 0.00 0.00 38 1020.7
20260902050804 59 231 6.0 15.0 0.00 0.01 0.00 40 1020.7
20260902050305 59 223 8.0 14.0 0.00 0.01 0.00 43 1020.8
20260902045805 59 233 5.0 14.0 0.00 0.02 0.00 45 1020.8